Iowa City, IA

7:29 AM CDT on September 24, 2017 (GMT -0500)
Iowa City Municipal

Weather History for KIOW - July, 2013

Change the Weather History Date:

Friday, July 5, 2013

  Actual Average Record
Temperature  
Mean Temperature 74 °F 75 °F  
Max Temperature 86 °F 85 °F 99 °F (2012)
Min Temperature 62 °F 65 °F 46 °F (1951)
Degree Days  
Heating Degree Days 0 0  
Month to date heating degree days 0 0  
Since 1 June heating degree days 21 17  
Since 1 July heating degree days 0 0  
Cooling Degree Days 9 10  
Month to date cooling degree days 30 50  
Year to date cooling degree days 322 322  
Since 1 June cooling degree days 235 261  
Growing Degree Days 24 (Base 50)    
Moisture  
Dew Point 63 °F    
Average Humidity 69    
Maximum Humidity 93    
Minimum Humidity 45    
Precipitation  
Precipitation 0.00 in 0.18 in 2.59 in (1993)
Month to date precipitation 0.00 0.90  
Year to date precipitation 26.07 17.60  
Sea Level Pressure  
Sea Level Pressure 30.00 in    
Wind  
Wind Speed 7 mph (SSE)    
Max Wind Speed 15 mph    
Max Gust Speed 22 mph    
Visibility 10 miles    
Events      
T = Trace of Precipitation, MM = Missing Value Source: NWS Daily Summary

Daily Weather History Graph

Daily Weather History Graph

Search for Another Location

Airport or City:

Trip Planner

Search our weather history database for the weather conditions in past years. The results will help you decide how hot, cold, wet, or windy it might be!

Date:

Astronomy

Jul. 05, 2013 Rise Set
Actual Time 5:38 AM CDT 8:43 PM CDT
Civil Twilight 5:04 AM CDT 9:17 PM CDT
Nautical Twilight 4:21 AM CDT 10:00 PM CDT
Astronomical Twilight 3:29 AM CDT 10:51 PM CDT
Moon 3:38 AM CDT (7/5) 6:37 PM CDT (7/5)
Length of Visible Light 16h 12m
Length of Day
15h 05m
Waning Crescent, 6% of the Moon is Illuminated
Jul 5
Waning Crescent
Jul 8
New
Jul 15
First Quarter
Jul 22
Full
Jul 29
Last Quarter

Hourly Weather History & Observations

Time (CDT) Temp. Heat Index Dew Point Humidity Pressure Visibility Wind Dir Wind Speed Gust Speed Precip Events Conditions
12:52 AM 66.9 °F - 61.0 °F 81% 30.01 in 10.0 mi Calm Calm - N/A   Clear
1:52 AM 66.9 °F - 60.1 °F 79% 30.01 in 10.0 mi Calm Calm - N/A   Clear
2:52 AM 64.9 °F - 61.0 °F 87% 30.01 in 10.0 mi SE 3.5 mph - N/A   Clear
3:52 AM 64.9 °F - 61.0 °F 87% 30.01 in 10.0 mi Calm Calm - N/A   Clear
4:52 AM 63.0 °F - 60.1 °F 90% 30.01 in 10.0 mi Calm Calm - N/A   Clear
5:52 AM 62.1 °F - 60.1 °F 93% 30.03 in 10.0 mi SE 4.6 mph - N/A   Clear
6:52 AM 64.9 °F - 62.1 °F 90% 30.04 in 10.0 mi Calm Calm - N/A   Clear
7:52 AM 69.1 °F - 63.0 °F 81% 30.04 in 10.0 mi SSE 3.5 mph - N/A   Clear
8:52 AM 75.0 °F - 64.0 °F 69% 30.04 in 10.0 mi South 5.8 mph - N/A   Clear
9:52 AM 78.1 °F - 64.9 °F 64% 30.04 in 10.0 mi South 8.1 mph - N/A   Clear
10:52 AM 80.1 °F 81.7 °F 64.0 °F 58% 30.04 in 10.0 mi SSW 10.4 mph - N/A   Clear
11:52 AM 82.9 °F 84.6 °F 64.9 °F 54% 30.01 in 10.0 mi South 8.1 mph - N/A   Clear
12:52 PM 82.9 °F 84.6 °F 64.9 °F 54% 30.01 in 10.0 mi South 13.8 mph - N/A   Clear
1:52 PM 84.0 °F 85.4 °F 64.0 °F 51% 30.00 in 10.0 mi South 11.5 mph - N/A   Scattered Clouds
2:52 PM 86.0 °F 86.3 °F 62.1 °F 44% 29.99 in 10.0 mi South 12.7 mph 20.7 mph N/A   Partly Cloudy
3:52 PM 86.0 °F 86.8 °F 63.0 °F 46% 29.98 in 10.0 mi South 17.3 mph 20.7 mph N/A   Clear
4:52 PM 84.9 °F 85.9 °F 63.0 °F 48% 29.98 in 10.0 mi South 12.7 mph - N/A   Clear
5:52 PM 84.0 °F 84.9 °F 63.0 °F 49% 29.96 in 10.0 mi SSE 11.5 mph - N/A   Clear
6:52 PM 82.9 °F 83.7 °F 62.1 °F 49% 29.96 in 10.0 mi South 9.2 mph - N/A   Clear
7:52 PM 80.1 °F 81.5 °F 63.0 °F 56% 29.96 in 10.0 mi SSE 6.9 mph - N/A   Clear
8:52 PM 75.0 °F - 64.0 °F 69% 29.97 in 10.0 mi SE 5.8 mph - N/A   Clear
9:52 PM 73.0 °F - 64.0 °F 73% 29.98 in 10.0 mi SE 5.8 mph - N/A   Clear
10:52 PM 71.1 °F - 64.0 °F 78% 29.99 in 10.0 mi SE 4.6 mph - N/A   Clear
11:52 PM 70.0 °F - 64.0 °F 81% 29.99 in 10.0 mi SE 3.5 mph - N/A   Clear